Time,TemperatureF,DewpointF,PressureIn,WindDirection,WindDirectionDegrees,WindSpeedMPH,WindSpeedGustMPH,Humidity,HourlyPrecipIn,Conditions,Clouds,dailyrainin,SoftwareType,DateUTC
2013-08-17 00:01:00,57.2,51.8,30.22,NE,45,0.0,1.3,82,0.00,,,0.00,WUHU216HW,2013-08-17 04:01:00,
2013-08-17 00:06:00,57.2,52.1,30.22,NE,45,0.0,0.4,83,0.00,,,0.00,WUHU216HW,2013-08-17 04:06:00,
2013-08-17 00:11:00,57.1,51.9,30.22,NE,45,0.0,0.0,83,0.00,,,0.00,WUHU216HW,2013-08-17 04:11:00,
2013-08-17 00:16:00,56.9,51.8,30.22,NE,45,0.2,0.4,83,0.00,,,0.00,WUHU216HW,2013-08-17 04:16:00,
2013-08-17 00:21:00,56.7,51.6,30.22,NE,45,0.9,0.9,83,0.00,,,0.00,WUHU216HW,2013-08-17 04:21:00,
2013-08-17 00:26:00,56.5,51.7,30.22,NE,45,0.9,0.9,84,0.00,,,0.00,WUHU216HW,2013-08-17 04:26:00,
2013-08-17 00:31:00,56.5,51.7,30.22,NE,45,0.7,1.1,84,0.00,,,0.00,WUHU216HW,2013-08-17 04:31:00,
2013-08-17 00:36:00,56.7,52.2,30.22,NE,45,0.0,1.1,85,0.00,,,0.00,WUHU216HW,2013-08-17 04:36:00,
2013-08-17 00:41:00,56.7,51.8,30.22,NE,45,0.4,0.7,84,0.00,,,0.00,WUHU216HW,2013-08-17 04:41:00,
2013-08-17 00:46:00,56.5,51.7,30.22,NE,45,0.0,0.4,84,0.00,,,0.00,WUHU216HW,2013-08-17 04:46:00,
2013-08-17 00:51:00,56.5,52.0,30.22,NE,45,0.0,0.4,85,0.00,,,0.00,WUHU216HW,2013-08-17 04:51:00,
2013-08-17 00:56:00,56.5,52.4,30.22,SE,135,0.0,0.4,86,0.00,,,0.00,WUHU216HW,2013-08-17 04:56:00,
2013-08-17 01:01:00,56.7,51.8,30.22,SE,135,0.0,0.4,84,0.00,,,0.00,WUHU216HW,2013-08-17 05:01:00,
2013-08-17 01:06:00,56.7,51.8,30.22,SE,135,0.0,0.0,84,0.00,,,0.00,WUHU216HW,2013-08-17 05:06:00,
2013-08-17 01:11:00,56.5,51.7,30.22,NNE,23,0.7,1.3,84,0.00,,,0.00,WUHU216HW,2013-08-17 05:11:00,
2013-08-17 01:16:00,56.3,51.5,30.22,NNE,23,0.4,1.3,84,0.00,,,0.00,WUHU216HW,2013-08-17 05:16:00,
2013-08-17 01:21:00,56.2,51.7,30.22,NNE,23,0.7,1.1,85,0.00,,,0.00,WUHU216HW,2013-08-17 05:21:00,
2013-08-17 01:26:00,55.8,51.3,30.22,NNE,23,0.7,1.1,85,0.00,,,0.00,WUHU216HW,2013-08-17 05:26:00,
2013-08-17 01:31:00,55.6,51.1,30.22,NNE,23,0.0,1.1,85,0.00,,,0.00,WUHU216HW,2013-08-17 05:31:00,
2013-08-17 01:36:00,55.4,50.9,30.22,NNE,23,0.4,0.7,85,0.00,,,0.00,WUHU216HW,2013-08-17 05:36:00,
2013-08-17 01:41:00,55.4,51.3,30.22,NNE,23,0.0,0.7,86,0.00,,,0.00,WUHU216HW,2013-08-17 05:41:00,
2013-08-17 01:46:00,55.4,51.3,30.22,NNE,23,0.0,0.7,86,0.00,,,0.00,WUHU216HW,2013-08-17 05:46:00,
2013-08-17 01:51:00,55.6,51.5,30.22,NNE,23,0.4,0.4,86,0.00,,,0.00,WUHU216HW,2013-08-17 05:51:00,
2013-08-17 01:56:00,55.6,51.5,30.22,NNE,23,0.2,0.4,86,0.00,,,0.00,WUHU216HW,2013-08-17 05:56:00,
2013-08-17 02:01:00,55.6,51.5,30.22,NNE,23,0.0,0.4,86,0.00,,,0.00,WUHU216HW,2013-08-17 06:01:00,
2013-08-17 02:06:00,55.6,51.5,30.22,NNE,23,0.4,0.7,86,0.00,,,0.00,WUHU216HW,2013-08-17 06:06:00,
2013-08-17 02:11:00,55.4,51.3,30.23,NNE,23,0.7,0.9,86,0.00,,,0.00,WUHU216HW,2013-08-17 06:11:00,
2013-08-17 02:16:00,55.4,51.3,30.23,NNE,23,0.0,0.9,86,0.00,,,0.00,WUHU216HW,2013-08-17 06:16:00,
2013-08-17 02:21:00,55.1,51.0,30.23,NNE,23,0.0,0.4,86,0.00,,,0.00,WUHU216HW,2013-08-17 06:21:00,
2013-08-17 02:26:00,54.9,50.8,30.23,NNE,23,0.9,0.9,86,0.00,,,0.00,WUHU216HW,2013-08-17 06:26:00,
2013-08-17 02:31:00,54.7,50.6,30.23,NNE,23,0.0,0.9,86,0.00,,,0.00,WUHU216HW,2013-08-17 06:31:00,
2013-08-17 02:36:00,54.7,50.6,30.23,NNE,23,0.0,0.7,86,0.00,,,0.00,WUHU216HW,2013-08-17 06:36:00,
2013-08-17 02:41:00,54.7,50.6,30.22,NNE,23,0.0,0.4,86,0.00,,,0.00,WUHU216HW,2013-08-17 06:41:00,
2013-08-17 02:46:00,54.9,51.0,30.22,NNE,23,0.0,0.4,87,0.00,,,0.00,WUHU216HW,2013-08-17 06:46:00,
2013-08-17 02:51:00,54.9,50.8,30.22,West,270,1.1,1.1,86,0.00,,,0.00,WUHU216HW,2013-08-17 06:51:00,
2013-08-17 02:56:00,55.8,53.2,30.22,WSW,248,1.3,1.8,91,0.00,,,0.00,WUHU216HW,2013-08-17 06:56:00,
2013-08-17 03:01:00,56.9,54.5,30.22,SW,225,0.2,1.8,92,0.00,,,0.00,WUHU216HW,2013-08-17 07:01:00,
2013-08-17 03:06:00,56.5,54.2,30.22,SW,225,0.4,1.6,92,0.00,,,0.00,WUHU216HW,2013-08-17 07:06:00,
2013-08-17 03:11:00,56.9,54.5,30.22,SW,225,0.4,0.9,92,0.00,,,0.00,WUHU216HW,2013-08-17 07:11:00,
2013-08-17 03:16:00,56.7,54.1,30.22,SW,225,0.0,0.9,91,0.00,,,0.00,WUHU216HW,2013-08-17 07:16:00,
2013-08-17 03:21:00,56.3,53.5,30.22,SW,225,0.0,0.4,90,0.00,,,0.00,WUHU216HW,2013-08-17 07:21:00,
2013-08-17 03:26:00,56.0,52.7,30.22,NNW,338,0.0,0.7,89,0.00,,,0.00,WUHU216HW,2013-08-17 07:26:00,
2013-08-17 03:31:00,55.6,52.1,30.23,North,0,0.7,0.9,88,0.00,,,0.00,WUHU216HW,2013-08-17 07:31:00,
2013-08-17 03:36:00,55.1,51.2,30.22,NNE,23,1.8,1.8,87,0.00,,,0.00,WUHU216HW,2013-08-17 07:36:00,
2013-08-17 03:41:00,54.5,51.0,30.22,NE,45,0.4,1.8,88,0.00,,,0.00,WUHU216HW,2013-08-17 07:41:00,
2013-08-17 03:46:00,54.2,50.7,30.23,NNE,23,0.0,1.8,88,0.00,,,0.00,WUHU216HW,2013-08-17 07:46:00,
2013-08-17 03:51:00,54.0,50.5,30.23,NNE,23,0.0,1.1,88,0.00,,,0.00,WUHU216HW,2013-08-17 07:51:00,
2013-08-17 03:56:00,53.8,50.3,30.22,NNE,23,0.0,0.0,88,0.00,,,0.00,WUHU216HW,2013-08-17 07:56:00,
2013-08-17 04:01:00,53.6,50.5,30.22,NE,45,0.4,0.9,89,0.00,,,0.00,WUHU216HW,2013-08-17 08:01:00,
2013-08-17 04:06:00,53.3,49.8,30.22,NE,45,1.6,1.6,88,0.00,,,0.00,WUHU216HW,2013-08-17 08:06:00,
2013-08-17 04:11:00,52.9,49.4,30.22,North,0,0.4,1.6,88,0.00,,,0.00,WUHU216HW,2013-08-17 08:11:00,
2013-08-17 04:16:00,52.9,49.4,30.22,North,0,0.4,1.6,88,0.00,,,0.00,WUHU216HW,2013-08-17 08:16:00,
2013-08-17 04:21:00,52.7,49.2,30.22,North,0,0.0,0.4,88,0.00,,,0.00,WUHU216HW,2013-08-17 08:21:00,
2013-08-17 04:26:00,52.6,49.4,30.22,North,0,0.0,0.4,89,0.00,,,0.00,WUHU216HW,2013-08-17 08:26:00,
2013-08-17 04:31:00,52.7,50.1,30.23,ESE,113,0.7,0.7,91,0.00,,,0.00,WUHU216HW,2013-08-17 08:31:00,
2013-08-17 04:36:00,53.3,50.9,30.23,SSE,158,0.4,0.7,92,0.00,,,0.00,WUHU216HW,2013-08-17 08:36:00,
2013-08-17 04:41:00,53.5,51.1,30.23,SSE,158,0.0,1.1,92,0.00,,,0.00,WUHU216HW,2013-08-17 08:41:00,
2013-08-17 04:46:00,53.5,51.1,30.23,SE,135,0.2,1.1,92,0.00,,,0.00,WUHU216HW,2013-08-17 08:46:00,
2013-08-17 04:51:00,53.3,50.4,30.24,SE,135,0.4,0.7,90,0.00,,,0.00,WUHU216HW,2013-08-17 08:51:00,
2013-08-17 04:56:00,52.9,49.8,30.24,NNE,23,1.1,1.3,89,0.00,,,0.00,WUHU216HW,2013-08-17 08:56:00,
2013-08-17 05:01:00,52.6,49.4,30.24,NNE,23,0.0,1.3,89,0.00,,,0.00,WUHU216HW,2013-08-17 09:01:00,
2013-08-17 05:06:00,52.4,49.2,30.24,NNE,23,1.1,1.1,89,0.00,,,0.00,WUHU216HW,2013-08-17 09:06:00,
2013-08-17 05:11:00,51.8,48.7,30.24,NNE,23,0.4,1.1,89,0.00,,,0.00,WUHU216HW,2013-08-17 09:11:00,
2013-08-17 05:16:00,51.5,48.6,30.24,ENE,68,0.4,1.1,90,0.00,,,0.00,WUHU216HW,2013-08-17 09:16:00,
2013-08-17 05:21:00,51.5,48.6,30.25,East,90,0.4,0.7,90,0.00,,,0.00,WUHU216HW,2013-08-17 09:21:00,
2013-08-17 05:26:00,51.7,48.8,30.25,West,270,0.7,0.7,90,0.00,,,0.00,WUHU216HW,2013-08-17 09:26:00,
2013-08-17 05:31:00,52.0,49.1,30.25,West,270,0.0,0.9,90,0.00,,,0.00,WUHU216HW,2013-08-17 09:31:00,
2013-08-17 05:36:00,52.0,49.4,30.25,West,270,0.2,0.9,91,0.00,,,0.00,WUHU216HW,2013-08-17 09:36:00,
2013-08-17 05:41:00,52.0,49.4,30.25,ESE,113,0.0,1.1,91,0.00,,,0.00,WUHU216HW,2013-08-17 09:41:00,
2013-08-17 05:46:00,51.8,49.0,30.24,NNE,23,0.2,1.1,90,0.00,,,0.00,WUHU216HW,2013-08-17 09:46:00,
2013-08-17 05:51:00,51.5,48.6,30.24,NE,45,0.4,1.1,90,0.00,,,0.00,WUHU216HW,2013-08-17 09:51:00,
2013-08-17 05:56:00,51.1,48.0,30.24,NE,45,0.2,1.1,89,0.00,,,0.00,WUHU216HW,2013-08-17 09:56:00,
2013-08-17 06:01:00,51.1,48.0,30.24,NE,45,0.0,0.4,89,0.00,,,0.00,WUHU216HW,2013-08-17 10:01:00,
2013-08-17 06:06:00,51.3,48.2,30.24,NE,45,0.0,0.2,89,0.00,,,0.00,WUHU216HW,2013-08-17 10:06:00,
2013-08-17 06:11:00,51.3,48.2,30.24,NE,45,0.4,0.4,89,0.00,,,0.00,WUHU216HW,2013-08-17 10:11:00,
2013-08-17 06:16:00,51.5,48.6,30.25,NE,45,0.0,0.7,90,0.00,,,0.00,WUHU216HW,2013-08-17 10:16:00,
2013-08-17 06:21:00,51.3,48.2,30.25,NE,45,0.0,0.9,89,0.00,,,0.00,WUHU216HW,2013-08-17 10:21:00,
2013-08-17 06:26:00,51.3,48.2,30.25,NE,45,1.1,1.1,89,0.00,,,0.00,WUHU216HW,2013-08-17 10:26:00,
2013-08-17 06:31:00,51.1,48.0,30.25,NE,45,0.7,1.1,89,0.00,,,0.00,WUHU216HW,2013-08-17 10:31:00,
2013-08-17 06:36:00,50.9,48.1,30.25,NNE,23,0.2,1.1,90,0.00,,,0.00,WUHU216HW,2013-08-17 10:36:00,
2013-08-17 06:41:00,50.8,47.6,30.25,NNE,23,0.4,1.1,89,0.00,,,0.00,WUHU216HW,2013-08-17 10:41:00,
2013-08-17 06:46:00,50.8,47.6,30.26,NNE,23,0.0,1.1,89,0.00,,,0.00,WUHU216HW,2013-08-17 10:46:00,
2013-08-17 06:51:00,50.9,47.8,30.26,NNE,23,0.4,1.1,89,0.00,,,0.00,WUHU216HW,2013-08-17 10:51:00,
2013-08-17 06:56:00,51.1,48.0,30.26,NNE,23,0.0,1.1,89,0.00,,,0.00,WUHU216HW,2013-08-17 10:56:00,
2013-08-17 07:01:00,51.5,48.6,30.26,NNE,23,0.4,0.7,90,0.00,,,0.00,WUHU216HW,2013-08-17 11:01:00,
2013-08-17 07:06:00,51.5,48.3,30.27,NNE,23,1.1,1.1,89,0.00,,,0.00,WUHU216HW,2013-08-17 11:06:00,
2013-08-17 07:11:00,51.7,48.5,30.26,NNE,23,0.4,1.1,89,0.00,,,0.00,WUHU216HW,2013-08-17 11:11:00,
2013-08-17 07:16:00,52.0,49.4,30.27,NNE,23,0.0,1.1,91,0.00,,,0.00,WUHU216HW,2013-08-17 11:16:00,
2013-08-17 07:21:00,52.9,50.3,30.27,NNE,23,0.0,0.4,91,0.00,,,0.00,WUHU216HW,2013-08-17 11:21:00,
2013-08-17 07:26:00,53.8,51.2,30.27,NNE,23,0.0,0.4,91,0.00,,,0.00,WUHU216HW,2013-08-17 11:26:00,
2013-08-17 07:31:00,54.4,51.8,30.27,SSE,158,0.0,0.4,91,0.00,,,0.00,WUHU216HW,2013-08-17 11:31:00,
2013-08-17 07:36:00,55.3,52.9,30.27,SW,225,0.4,0.4,92,0.00,,,0.00,WUHU216HW,2013-08-17 11:36:00,
2013-08-17 07:41:00,56.0,53.6,30.28,West,270,1.8,1.8,92,0.00,,,0.00,WUHU216HW,2013-08-17 11:41:00,
2013-08-17 07:46:00,56.5,53.6,30.28,West,270,0.4,2.5,90,0.00,,,0.00,WUHU216HW,2013-08-17 11:46:00,
2013-08-17 07:51:00,57.1,54.2,30.27,West,270,0.7,2.5,90,0.00,,,0.00,WUHU216HW,2013-08-17 11:51:00,
2013-08-17 07:56:00,57.8,54.5,30.27,West,270,0.4,1.1,89,0.00,,,0.00,WUHU216HW,2013-08-17 11:56:00,
2013-08-17 08:01:00,58.3,55.1,30.27,WNW,293,0.2,1.6,89,0.00,,,0.00,WUHU216HW,2013-08-17 12:01:00,
2013-08-17 08:06:00,58.7,54.8,30.27,South,180,0.2,1.6,87,0.00,,,0.00,WUHU216HW,2013-08-17 12:06:00,
2013-08-17 08:11:00,59.0,55.2,30.27,West,270,0.0,1.6,87,0.00,,,0.00,WUHU216HW,2013-08-17 12:11:00,
2013-08-17 08:16:00,59.6,55.7,30.27,WSW,248,0.4,1.6,87,0.00,,,0.00,WUHU216HW,2013-08-17 12:16:00,
2013-08-17 08:21:00,60.1,55.6,30.27,West,270,0.2,1.8,85,0.00,,,0.00,WUHU216HW,2013-08-17 12:21:00,
2013-08-17 08:26:00,60.5,56.0,30.28,West,270,1.6,1.8,85,0.00,,,0.00,WUHU216HW,2013-08-17 12:26:00,
2013-08-17 08:31:00,61.0,56.2,30.27,South,180,0.0,1.6,84,0.00,,,0.00,WUHU216HW,2013-08-17 12:31:00,
2013-08-17 08:36:00,61.9,56.7,30.28,ESE,113,0.4,1.6,83,0.00,,,0.00,WUHU216HW,2013-08-17 12:36:00,
2013-08-17 08:41:00,62.3,56.7,30.28,ESE,113,0.4,1.3,82,0.00,,,0.00,WUHU216HW,2013-08-17 12:41:00,
2013-08-17 08:46:00,62.8,57.3,30.28,ESE,113,0.2,1.3,82,0.00,,,0.00,WUHU216HW,2013-08-17 12:46:00,
2013-08-17 08:51:00,63.4,57.4,30.28,East,90,0.0,1.3,81,0.00,,,0.00,WUHU216HW,2013-08-17 12:51:00,
2013-08-17 08:56:00,63.7,57.8,30.28,East,90,0.7,1.1,81,0.00,,,0.00,WUHU216HW,2013-08-17 12:56:00,
2013-08-17 09:01:00,63.9,57.2,30.28,East,90,0.2,1.6,79,0.00,,,0.00,WUHU216HW,2013-08-17 13:01:00,
2013-08-17 09:06:00,64.3,58.0,30.28,ENE,68,1.8,2.0,80,0.00,,,0.00,WUHU216HW,2013-08-17 13:06:00,
2013-08-17 09:11:00,64.3,57.6,30.28,ENE,68,1.3,2.2,79,0.00,,,0.00,WUHU216HW,2013-08-17 13:11:00,
2013-08-17 09:16:00,64.6,57.6,30.28,SSE,158,0.4,2.2,78,0.00,,,0.00,WUHU216HW,2013-08-17 13:16:00,
2013-08-17 09:21:00,65.0,58.0,30.28,NNE,23,2.7,2.7,78,0.00,,,0.00,WUHU216HW,2013-08-17 13:21:00,
2013-08-17 09:26:00,65.5,58.5,30.28,ENE,68,1.1,2.7,78,0.00,,,0.00,WUHU216HW,2013-08-17 13:26:00,
2013-08-17 09:31:00,65.9,58.5,30.28,ENE,68,1.1,2.2,77,0.00,,,0.00,WUHU216HW,2013-08-17 13:31:00,
2013-08-17 09:36:00,66.4,57.9,30.28,SE,135,1.6,2.2,74,0.00,,,0.00,WUHU216HW,2013-08-17 13:36:00,
2013-08-17 09:41:00,66.6,58.1,30.28,ENE,68,0.7,2.2,74,0.00,,,0.00,WUHU216HW,2013-08-17 13:41:00,
2013-08-17 09:46:00,67.3,58.4,30.28,ENE,68,1.6,2.2,73,0.00,,,0.00,WUHU216HW,2013-08-17 13:46:00,
2013-08-17 09:51:00,67.9,58.5,30.28,ESE,113,2.0,3.1,72,0.00,,,0.00,WUHU216HW,2013-08-17 13:51:00,
2013-08-17 09:56:00,68.4,59.8,30.28,North,0,2.7,3.1,74,0.00,,,0.00,WUHU216HW,2013-08-17 13:56:00,
2013-08-17 10:01:00,68.9,58.8,30.28,West,270,1.1,2.9,70,0.00,,,0.00,WUHU216HW,2013-08-17 14:01:00,
2013-08-17 10:06:00,69.7,59.4,30.28,West,270,1.6,2.7,70,0.00,,,0.00,WUHU216HW,2013-08-17 14:06:00,
2013-08-17 10:11:00,69.8,58.3,30.28,ESE,113,0.2,2.5,67,0.00,,,0.00,WUHU216HW,2013-08-17 14:11:00,
2013-08-17 10:16:00,69.7,58.6,30.28,NE,45,1.3,4.0,68,0.00,,,0.00,WUHU216HW,2013-08-17 14:16:00,
2013-08-17 10:21:00,69.7,58.6,30.28,East,90,1.1,4.0,68,0.00,,,0.00,WUHU216HW,2013-08-17 14:21:00,
2013-08-17 10:26:00,69.5,58.0,30.28,ESE,113,1.1,4.0,67,0.00,,,0.00,WUHU216HW,2013-08-17 14:26:00,
2013-08-17 10:31:00,70.0,57.7,30.28,ENE,68,0.4,4.5,65,0.00,,,0.00,WUHU216HW,2013-08-17 14:31:00,
2013-08-17 10:36:00,70.2,58.7,30.28,NE,45,0.0,4.5,67,0.00,,,0.00,WUHU216HW,2013-08-17 14:36:00,
2013-08-17 10:41:00,70.4,58.9,30.28,ENE,68,2.2,4.9,67,0.00,,,0.00,WUHU216HW,2013-08-17 14:41:00,
2013-08-17 10:46:00,70.6,58.6,30.28,SE,135,1.8,4.9,66,0.00,,,0.00,WUHU216HW,2013-08-17 14:46:00,
2013-08-17 10:51:00,70.7,59.2,30.28,NW,315,0.9,4.3,67,0.00,,,0.00,WUHU216HW,2013-08-17 14:51:00,
2013-08-17 10:56:00,71.6,59.7,30.28,NE,45,4.5,4.5,66,0.00,,,0.00,WUHU216HW,2013-08-17 14:56:00,
2013-08-17 11:01:00,72.0,60.0,30.28,East,90,3.1,4.9,66,0.00,,,0.00,WUHU216HW,2013-08-17 15:01:00,
2013-08-17 11:06:00,72.4,60.0,30.28,ENE,68,3.6,4.9,65,0.00,,,0.00,WUHU216HW,2013-08-17 15:06:00,
2013-08-17 11:11:00,72.4,60.8,30.29,NE,45,2.5,4.3,67,0.00,,,0.00,WUHU216HW,2013-08-17 15:11:00,
2013-08-17 11:16:00,72.7,59.4,30.28,ESE,113,1.8,3.1,63,0.00,,,0.00,WUHU216HW,2013-08-17 15:16:00,
2013-08-17 11:21:00,73.1,60.1,30.28,East,90,1.1,3.1,64,0.00,,,0.00,WUHU216HW,2013-08-17 15:21:00,
2013-08-17 11:26:00,73.3,58.1,30.28,ESE,113,3.8,4.7,59,0.00,,,0.00,WUHU216HW,2013-08-17 15:26:00,
2013-08-17 11:31:00,73.1,60.1,30.27,NNE,23,2.9,5.1,64,0.00,,,0.00,WUHU216HW,2013-08-17 15:31:00,
2013-08-17 11:36:00,73.3,61.2,30.27,North,0,2.0,5.1,66,0.00,,,0.00,WUHU216HW,2013-08-17 15:36:00,
2013-08-17 11:41:00,73.3,59.4,30.28,NE,45,4.5,5.6,62,0.00,,,0.00,WUHU216HW,2013-08-17 15:41:00,
2013-08-17 11:46:00,73.1,59.2,30.27,NNE,23,4.7,5.6,62,0.00,,,0.00,WUHU216HW,2013-08-17 15:46:00,
2013-08-17 11:51:00,73.4,59.6,30.27,SE,135,3.1,5.6,62,0.00,,,0.00,WUHU216HW,2013-08-17 15:51:00,
2013-08-17 11:56:00,73.6,58.9,30.27,ENE,68,4.0,5.8,60,0.00,,,0.00,WUHU216HW,2013-08-17 15:56:00,
2013-08-17 12:01:00,73.8,60.4,30.27,ESE,113,2.0,5.8,63,0.00,,,0.00,WUHU216HW,2013-08-17 16:01:00,
2013-08-17 12:06:00,74.2,59.4,30.27,ENE,68,2.9,6.7,60,0.00,,,0.00,WUHU216HW,2013-08-17 16:06:00,
2013-08-17 12:11:00,74.0,60.1,30.27,ESE,113,3.4,6.7,62,0.00,,,0.00,WUHU216HW,2013-08-17 16:11:00,
2013-08-17 12:16:00,74.3,60.0,30.27,NE,45,4.7,6.0,61,0.00,,,0.00,WUHU216HW,2013-08-17 16:16:00,
2013-08-17 12:21:00,74.5,58.2,30.27,SE,135,4.5,6.7,57,0.00,,,0.00,WUHU216HW,2013-08-17 16:21:00,
2013-08-17 12:26:00,74.5,60.2,30.27,ESE,113,2.5,6.7,61,0.00,,,0.00,WUHU216HW,2013-08-17 16:26:00,
2013-08-17 12:31:00,74.9,59.1,30.27,ESE,113,3.4,5.4,58,0.00,,,0.00,WUHU216HW,2013-08-17 16:31:00,
2013-08-17 12:36:00,74.9,59.1,30.27,ESE,113,4.9,6.3,58,0.00,,,0.00,WUHU216HW,2013-08-17 16:36:00,
2013-08-17 12:41:00,75.2,59.5,30.27,NE,45,7.6,7.6,58,0.00,,,0.00,WUHU216HW,2013-08-17 16:41:00,
2013-08-17 12:46:00,75.1,57.8,30.26,SE,135,4.5,7.6,55,0.00,,,0.00,WUHU216HW,2013-08-17 16:46:00,
2013-08-17 12:51:00,75.1,59.3,30.26,ENE,68,2.2,7.6,58,0.00,,,0.00,WUHU216HW,2013-08-17 16:51:00,
2013-08-17 12:56:00,75.4,59.7,30.26,NE,45,2.0,5.8,58,0.00,,,0.00,WUHU216HW,2013-08-17 16:56:00,
2013-08-17 13:01:00,75.4,59.7,30.26,ESE,113,3.8,5.8,58,0.00,,,0.00,WUHU216HW,2013-08-17 17:01:00,
2013-08-17 13:06:00,76.1,57.2,30.26,SE,135,2.9,7.6,52,0.00,,,0.00,WUHU216HW,2013-08-17 17:06:00,
2013-08-17 13:11:00,76.5,58.1,30.26,ESE,113,4.0,7.6,53,0.00,,,0.00,WUHU216HW,2013-08-17 17:11:00,
2013-08-17 13:16:00,76.9,59.0,30.26,ESE,113,1.8,6.3,54,0.00,,,0.00,WUHU216HW,2013-08-17 17:16:00,
2013-08-17 13:21:00,76.5,57.6,30.26,NE,45,2.7,6.0,52,0.00,,,0.00,WUHU216HW,2013-08-17 17:21:00,
2013-08-17 13:26:00,76.1,56.8,30.26,ESE,113,3.6,6.0,51,0.00,,,0.00,WUHU216HW,2013-08-17 17:26:00,
2013-08-17 13:31:00,76.0,57.1,30.25,ESE,113,2.7,5.4,52,0.00,,,0.00,WUHU216HW,2013-08-17 17:31:00,
2013-08-17 13:36:00,76.1,57.8,30.25,ESE,113,4.7,4.7,53,0.00,,,0.00,WUHU216HW,2013-08-17 17:36:00,
2013-08-17 13:41:00,76.3,59.0,30.25,ENE,68,3.4,6.3,55,0.00,,,0.00,WUHU216HW,2013-08-17 17:41:00,
2013-08-17 13:46:00,76.1,58.8,30.25,SE,135,2.9,6.3,55,0.00,,,0.00,WUHU216HW,2013-08-17 17:46:00,
2013-08-17 13:51:00,76.7,58.8,30.25,East,90,4.3,7.4,54,0.00,,,0.00,WUHU216HW,2013-08-17 17:51:00,
2013-08-17 13:56:00,76.7,58.2,30.25,ENE,68,3.1,7.4,53,0.00,,,0.00,WUHU216HW,2013-08-17 17:56:00,
2013-08-17 14:01:00,76.7,57.8,30.25,SSW,203,0.7,7.4,52,0.00,,,0.00,WUHU216HW,2013-08-17 18:01:00,
2013-08-17 14:06:00,77.4,57.9,30.25,South,180,2.0,5.1,51,0.00,,,0.00,WUHU216HW,2013-08-17 18:06:00,
2013-08-17 14:11:00,78.1,58.1,30.25,SSE,158,2.9,6.3,50,0.00,,,0.00,WUHU216HW,2013-08-17 18:11:00,
2013-08-17 14:16:00,77.6,58.1,30.25,SE,135,4.0,6.3,51,0.00,,,0.00,WUHU216HW,2013-08-17 18:16:00,
2013-08-17 14:21:00,77.4,59.0,30.25,ESE,113,1.6,6.9,53,0.00,,,0.00,WUHU216HW,2013-08-17 18:21:00,
2013-08-17 14:26:00,77.0,58.1,30.25,ESE,113,3.8,6.9,52,0.00,,,0.00,WUHU216HW,2013-08-17 18:26:00,
2013-08-17 14:31:00,77.4,57.4,30.25,WSW,248,1.3,6.3,50,0.00,,,0.00,WUHU216HW,2013-08-17 18:31:00,
2013-08-17 14:36:00,77.2,58.2,30.25,ESE,113,3.4,5.4,52,0.00,,,0.00,WUHU216HW,2013-08-17 18:36:00,
2013-08-17 14:41:00,76.3,58.4,30.25,ENE,68,2.7,6.0,54,0.00,,,0.00,WUHU216HW,2013-08-17 18:41:00,
2013-08-17 14:46:00,76.3,59.0,30.25,ENE,68,1.6,6.0,55,0.00,,,0.00,WUHU216HW,2013-08-17 18:46:00,
2013-08-17 14:51:00,76.3,58.0,30.25,SSE,158,2.5,3.8,53,0.00,,,0.00,WUHU216HW,2013-08-17 18:51:00,
2013-08-17 14:56:00,76.5,59.1,30.25,East,90,1.6,4.7,55,0.00,,,0.00,WUHU216HW,2013-08-17 18:56:00,
2013-08-17 15:01:00,76.5,58.1,30.24,North,0,1.8,5.4,53,0.00,,,0.00,WUHU216HW,2013-08-17 19:01:00,
2013-08-17 15:06:00,76.7,56.7,30.24,SE,135,4.5,5.4,50,0.00,,,0.00,WUHU216HW,2013-08-17 19:06:00,
2013-08-17 15:11:00,77.0,57.6,30.24,ESE,113,1.8,5.4,51,0.00,,,0.00,WUHU216HW,2013-08-17 19:11:00,
2013-08-17 15:16:00,77.9,57.9,30.23,NE,45,6.0,7.4,50,0.00,,,0.00,WUHU216HW,2013-08-17 19:16:00,
2013-08-17 15:21:00,78.1,57.4,30.23,ESE,113,5.4,7.6,49,0.00,,,0.00,WUHU216HW,2013-08-17 19:21:00,
2013-08-17 15:26:00,77.8,57.1,30.23,ENE,68,4.9,7.6,49,0.00,,,0.00,WUHU216HW,2013-08-17 19:26:00,
2013-08-17 15:31:00,78.1,59.0,30.23,NNE,23,4.5,6.3,52,0.00,,,0.00,WUHU216HW,2013-08-17 19:31:00,
2013-08-17 15:36:00,79.2,58.4,30.23,ESE,113,4.5,6.9,49,0.00,,,0.00,WUHU216HW,2013-08-17 19:36:00,
2013-08-17 15:41:00,79.2,58.4,30.22,ESE,113,2.9,6.9,49,0.00,,,0.00,WUHU216HW,2013-08-17 19:41:00,
2013-08-17 15:46:00,79.4,57.3,30.22,ESE,113,1.8,5.8,47,0.00,,,0.00,WUHU216HW,2013-08-17 19:46:00,
2013-08-17 15:51:00,78.5,58.9,30.22,ENE,68,5.6,6.7,51,0.00,,,0.00,WUHU216HW,2013-08-17 19:51:00,
2013-08-17 15:56:00,77.2,58.2,30.23,East,90,5.4,6.7,52,0.00,,,0.00,WUHU216HW,2013-08-17 19:56:00,
2013-08-17 16:01:00,76.5,58.1,30.23,East,90,2.9,5.8,53,0.00,,,0.00,WUHU216HW,2013-08-17 20:01:00,
2013-08-17 16:06:00,76.3,57.4,30.23,East,90,2.7,5.1,52,0.00,,,0.00,WUHU216HW,2013-08-17 20:06:00,
2013-08-17 16:11:00,76.3,57.4,30.23,East,90,1.8,4.7,52,0.00,,,0.00,WUHU216HW,2013-08-17 20:11:00,
2013-08-17 16:16:00,76.3,58.0,30.23,ENE,68,3.6,3.8,53,0.00,,,0.00,WUHU216HW,2013-08-17 20:16:00,
2013-08-17 16:21:00,76.5,57.6,30.23,ESE,113,2.2,3.6,52,0.00,,,0.00,WUHU216HW,2013-08-17 20:21:00,
2013-08-17 16:26:00,76.7,58.8,30.23,ENE,68,3.4,3.4,54,0.00,,,0.00,WUHU216HW,2013-08-17 20:26:00,
2013-08-17 16:31:00,76.7,57.8,30.23,ESE,113,2.5,4.0,52,0.00,,,0.00,WUHU216HW,2013-08-17 20:31:00,
2013-08-17 16:36:00,76.7,58.8,30.23,ESE,113,1.8,4.0,54,0.00,,,0.00,WUHU216HW,2013-08-17 20:36:00,
2013-08-17 16:41:00,77.0,58.6,30.23,NE,45,3.4,5.4,53,0.00,,,0.00,WUHU216HW,2013-08-17 20:41:00,
2013-08-17 16:49:00,76.7,58.2,30.23,NNE,23,4.3,5.4,53,0.00,,,0.00,WUHU216HW,2013-08-17 20:49:00,
2013-08-17 16:54:00,76.7,58.8,30.23,NE,45,1.8,4.7,54,0.00,,,0.00,WUHU216HW,2013-08-17 20:54:00,
2013-08-17 16:59:00,76.9,58.4,30.23,East,90,2.0,5.1,53,0.00,,,0.00,WUHU216HW,2013-08-17 20:59:00,
2013-08-17 17:04:00,76.5,57.6,30.23,East,90,4.5,6.3,52,0.00,,,0.00,WUHU216HW,2013-08-17 21:04:00,
2013-08-17 17:09:00,76.5,57.6,30.23,ENE,68,1.3,6.3,52,0.00,,,0.00,WUHU216HW,2013-08-17 21:09:00,
2013-08-17 17:14:00,76.3,58.0,30.23,East,90,2.5,4.3,53,0.00,,,0.00,WUHU216HW,2013-08-17 21:14:00,
2013-08-17 17:19:00,76.1,57.2,30.23,ESE,113,2.0,4.3,52,0.00,,,0.00,WUHU216HW,2013-08-17 21:19:00,
2013-08-17 17:24:00,76.0,58.6,30.23,SE,135,1.6,4.0,55,0.00,,,0.00,WUHU216HW,2013-08-17 21:24:00,
2013-08-17 17:29:00,76.0,58.6,30.23,ESE,113,2.5,2.9,55,0.00,,,0.00,WUHU216HW,2013-08-17 21:29:00,
2013-08-17 17:34:00,76.0,58.2,30.23,SE,135,2.9,3.4,54,0.00,,,0.00,WUHU216HW,2013-08-17 21:34:00,
2013-08-17 17:39:00,75.8,59.0,30.23,SSE,158,1.1,3.4,56,0.00,,,0.00,WUHU216HW,2013-08-17 21:39:00,
2013-08-17 17:44:00,75.8,59.0,30.23,SSW,203,0.7,2.9,56,0.00,,,0.00,WUHU216HW,2013-08-17 21:44:00,
2013-08-17 17:49:00,75.6,58.8,30.23,ESE,113,0.9,2.5,56,0.00,,,0.00,WUHU216HW,2013-08-17 21:49:00,
2013-08-17 17:54:00,75.6,58.3,30.23,SE,135,0.9,1.3,55,0.00,,,0.00,WUHU216HW,2013-08-17 21:54:00,
2013-08-17 17:59:00,75.4,58.6,30.23,ESE,113,0.9,2.0,56,0.00,,,0.00,WUHU216HW,2013-08-17 21:59:00,
2013-08-17 18:04:00,75.2,59.0,30.23,ESE,113,1.1,2.0,57,0.00,,,0.00,WUHU216HW,2013-08-17 22:04:00,
2013-08-17 18:09:00,75.2,59.0,30.23,SE,135,1.1,1.8,57,0.00,,,0.00,WUHU216HW,2013-08-17 22:09:00,
2013-08-17 18:14:00,75.1,58.8,30.23,ESE,113,1.8,1.8,57,0.00,,,0.00,WUHU216HW,2013-08-17 22:14:00,
2013-08-17 18:19:00,75.1,59.3,30.23,ESE,113,0.9,1.8,58,0.00,,,0.00,WUHU216HW,2013-08-17 22:19:00,
2013-08-17 18:24:00,74.9,59.6,30.23,East,90,1.1,1.8,59,0.00,,,0.00,WUHU216HW,2013-08-17 22:24:00,
2013-08-17 18:29:00,74.9,59.1,30.23,ESE,113,2.2,2.5,58,0.00,,,0.00,WUHU216HW,2013-08-17 22:29:00,
2013-08-17 18:34:00,74.7,59.4,30.23,ESE,113,1.3,2.5,59,0.00,,,0.00,WUHU216HW,2013-08-17 22:34:00,
2013-08-17 18:39:00,74.7,59.0,30.23,ESE,113,1.1,2.2,58,0.00,,,0.00,WUHU216HW,2013-08-17 22:39:00,
2013-08-17 18:44:00,74.5,59.2,30.23,East,90,0.4,2.0,59,0.00,,,0.00,WUHU216HW,2013-08-17 22:44:00,
2013-08-17 18:49:00,74.5,59.8,30.23,ESE,113,0.4,2.2,60,0.00,,,0.00,WUHU216HW,2013-08-17 22:49:00,
2013-08-17 18:54:00,74.3,59.6,30.23,ESE,113,0.4,2.2,60,0.00,,,0.00,WUHU216HW,2013-08-17 22:54:00,
2013-08-17 18:59:00,74.5,59.8,30.23,SE,135,1.1,1.6,60,0.00,,,0.00,WUHU216HW,2013-08-17 22:59:00,
2013-08-17 19:04:00,74.3,60.0,30.23,ESE,113,0.2,1.6,61,0.00,,,0.00,WUHU216HW,2013-08-17 23:04:00,
2013-08-17 19:09:00,74.0,59.7,30.23,NE,45,1.3,1.6,61,0.00,,,0.00,WUHU216HW,2013-08-17 23:09:00,
2013-08-17 19:14:00,73.8,60.0,30.23,NE,45,1.1,2.0,62,0.00,,,0.00,WUHU216HW,2013-08-17 23:14:00,
2013-08-17 19:19:00,73.4,60.0,30.23,NNE,23,1.1,2.0,63,0.00,,,0.00,WUHU216HW,2013-08-17 23:19:00,
2013-08-17 19:24:00,73.1,59.7,30.23,NNE,23,1.1,1.6,63,0.00,,,0.00,WUHU216HW,2013-08-17 23:24:00,
2013-08-17 19:29:00,72.9,60.4,30.23,NE,45,0.2,1.1,65,0.00,,,0.00,WUHU216HW,2013-08-17 23:29:00,
2013-08-17 19:34:00,72.7,61.1,30.23,East,90,0.9,1.1,67,0.00,,,0.00,WUHU216HW,2013-08-17 23:34:00,
2013-08-17 19:39:00,72.4,60.3,30.23,NE,45,1.1,1.6,66,0.00,,,0.00,WUHU216HW,2013-08-17 23:39:00,
2013-08-17 19:44:00,72.2,60.2,30.23,NE,45,0.9,1.6,66,0.00,,,0.00,WUHU216HW,2013-08-17 23:44:00,
2013-08-17 19:49:00,72.0,60.0,30.23,NNE,23,1.1,1.6,66,0.00,,,0.00,WUHU216HW,2013-08-17 23:49:00,
2013-08-17 19:54:00,71.6,60.1,30.23,NNE,23,0.2,1.6,67,0.00,,,0.00,WUHU216HW,2013-08-17 23:54:00,
2013-08-17 19:59:00,71.6,61.4,30.23,NE,45,0.4,1.1,70,0.00,,,0.00,WUHU216HW,2013-08-17 23:59:00,
2013-08-17 20:04:00,71.3,60.1,30.23,ESE,113,0.4,0.7,68,0.00,,,0.00,WUHU216HW,2013-08-18 00:04:00,
2013-08-17 20:09:00,71.3,60.1,30.24,SE,135,0.0,0.7,68,0.00,,,0.00,WUHU216HW,2013-08-18 00:09:00,
2013-08-17 20:14:00,71.1,60.0,30.24,SE,135,0.2,0.7,68,0.00,,,0.00,WUHU216HW,2013-08-18 00:14:00,
2013-08-17 20:19:00,70.9,60.2,30.24,SE,135,0.0,0.4,69,0.00,,,0.00,WUHU216HW,2013-08-18 00:19:00,
2013-08-17 20:24:00,70.7,60.0,30.24,ESE,113,0.4,0.9,69,0.00,,,0.00,WUHU216HW,2013-08-18 00:24:00,
2013-08-17 20:29:00,70.4,60.1,30.24,ESE,113,0.4,0.9,70,0.00,,,0.00,WUHU216HW,2013-08-18 00:29:00,
2013-08-17 20:34:00,70.4,59.7,30.24,ESE,113,0.2,0.7,69,0.00,,,0.00,WUHU216HW,2013-08-18 00:34:00,
2013-08-17 20:39:00,70.4,60.1,30.24,ESE,113,0.4,0.7,70,0.00,,,0.00,WUHU216HW,2013-08-18 00:39:00,
2013-08-17 20:44:00,70.2,60.3,30.24,SSE,158,0.0,0.4,71,0.00,,,0.00,WUHU216HW,2013-08-18 00:44:00,
2013-08-17 20:49:00,70.0,59.8,30.24,SSE,158,0.0,0.4,70,0.00,,,0.00,WUHU216HW,2013-08-18 00:49:00,
2013-08-17 20:54:00,69.7,59.4,30.24,SSE,158,0.0,0.0,70,0.00,,,0.00,WUHU216HW,2013-08-18 00:54:00,
2013-08-17 20:59:00,69.5,59.7,30.25,SSE,158,0.0,0.4,71,0.00,,,0.00,WUHU216HW,2013-08-18 00:59:00,
2013-08-17 21:04:00,69.5,59.7,30.25,SSE,158,0.0,0.4,71,0.00,,,0.00,WUHU216HW,2013-08-18 01:04:00,
2013-08-17 21:09:00,69.1,60.0,30.25,SE,135,0.2,0.2,73,0.00,,,0.00,WUHU216HW,2013-08-18 01:09:00,
2013-08-17 21:14:00,68.9,60.3,30.24,ESE,113,0.7,0.9,74,0.00,,,0.00,WUHU216HW,2013-08-18 01:14:00,
2013-08-17 21:19:00,68.8,59.4,30.24,ESE,113,0.0,0.9,72,0.00,,,0.00,WUHU216HW,2013-08-18 01:19:00,
2013-08-17 21:24:00,68.4,59.0,30.25,ENE,68,0.4,0.9,72,0.00,,,0.00,WUHU216HW,2013-08-18 01:24:00,
2013-08-17 21:29:00,68.0,59.5,30.25,ENE,68,0.0,0.9,74,0.00,,,0.00,WUHU216HW,2013-08-18 01:29:00,
2013-08-17 21:34:00,67.7,59.1,30.25,ENE,68,0.2,0.9,74,0.00,,,0.00,WUHU216HW,2013-08-18 01:34:00,
2013-08-17 21:39:00,67.3,59.1,30.25,ENE,68,0.2,0.9,75,0.00,,,0.00,WUHU216HW,2013-08-18 01:39:00,
2013-08-17 21:44:00,67.1,59.3,30.25,ENE,68,0.0,0.9,76,0.00,,,0.00,WUHU216HW,2013-08-18 01:44:00,
2013-08-17 21:49:00,67.0,59.5,30.25,NE,45,1.1,1.1,77,0.00,,,0.00,WUHU216HW,2013-08-18 01:49:00,
2013-08-17 21:54:00,66.6,59.6,30.25,NE,45,0.7,1.6,78,0.00,,,0.00,WUHU216HW,2013-08-18 01:54:00,
2013-08-17 21:59:00,66.4,59.8,30.25,NE,45,0.4,1.6,79,0.00,,,0.00,WUHU216HW,2013-08-18 01:59:00,
2013-08-17 22:04:00,66.1,59.4,30.25,NE,45,0.2,0.7,79,0.00,,,0.00,WUHU216HW,2013-08-18 02:04:00,
2013-08-17 22:09:00,65.9,60.0,30.25,NE,45,0.0,0.7,81,0.00,,,0.00,WUHU216HW,2013-08-18 02:09:00,
2013-08-17 22:14:00,65.9,59.2,30.25,NE,45,0.0,0.2,79,0.00,,,0.00,WUHU216HW,2013-08-18 02:14:00,
2013-08-17 22:19:00,65.9,59.6,30.25,NE,45,0.0,0.0,80,0.00,,,0.00,WUHU216HW,2013-08-18 02:19:00,
2013-08-17 22:24:00,66.1,59.4,30.25,NE,45,1.1,1.1,79,0.00,,,0.00,WUHU216HW,2013-08-18 02:24:00,
2013-08-17 22:29:00,66.1,59.8,30.25,NE,45,1.1,1.1,80,0.00,,,0.00,WUHU216HW,2013-08-18 02:29:00,
2013-08-17 22:34:00,66.1,59.8,30.25,NE,45,0.7,1.1,80,0.00,,,0.00,WUHU216HW,2013-08-18 02:34:00,
2013-08-17 22:39:00,65.9,60.0,30.25,NNE,23,1.1,1.8,81,0.00,,,0.00,WUHU216HW,2013-08-18 02:39:00,
2013-08-17 22:44:00,65.9,60.0,30.25,NNE,23,0.0,1.8,81,0.00,,,0.00,WUHU216HW,2013-08-18 02:44:00,
2013-08-17 22:49:00,65.7,59.8,30.25,NNE,23,0.7,1.1,81,0.00,,,0.00,WUHU216HW,2013-08-18 02:49:00,
2013-08-17 22:54:00,65.9,60.0,30.24,NNE,23,0.0,1.1,81,0.00,,,0.00,WUHU216HW,2013-08-18 02:54:00,
2013-08-17 22:59:00,65.9,60.0,30.24,NNE,23,0.7,0.9,81,0.00,,,0.00,WUHU216HW,2013-08-18 02:59:00,
2013-08-17 23:04:00,65.7,60.0,30.25,NE,45,1.1,1.8,82,0.00,,,0.00,WUHU216HW,2013-08-18 03:04:00,
2013-08-17 23:09:00,65.7,60.0,30.24,NE,45,0.7,1.8,82,0.00,,,0.00,WUHU216HW,2013-08-18 03:09:00,
2013-08-17 23:14:00,65.5,59.9,30.24,NE,45,0.4,1.3,82,0.00,,,0.00,WUHU216HW,2013-08-18 03:14:00,
2013-08-17 23:19:00,65.5,59.9,30.24,NE,45,0.4,1.1,82,0.00,,,0.00,WUHU216HW,2013-08-18 03:19:00,
2013-08-17 23:24:00,65.5,59.9,30.24,NE,45,0.0,1.1,82,0.00,,,0.00,WUHU216HW,2013-08-18 03:24:00,
2013-08-17 23:29:00,65.5,59.9,30.24,NE,45,0.0,0.9,82,0.00,,,0.00,WUHU216HW,2013-08-18 03:29:00,
2013-08-17 23:34:00,65.7,60.0,30.24,NE,45,0.0,0.4,82,0.00,,,0.00,WUHU216HW,2013-08-18 03:34:00,
2013-08-17 23:39:00,65.7,60.0,30.24,NNE,23,0.2,0.4,82,0.00,,,0.00,WUHU216HW,2013-08-18 03:39:00,
2013-08-17 23:44:00,65.9,60.0,30.24,NNE,23,0.4,0.4,81,0.00,,,0.00,WUHU216HW,2013-08-18 03:44:00,
2013-08-17 23:49:00,65.7,59.8,30.25,NNE,23,0.7,0.7,81,0.00,,,0.00,WUHU216HW,2013-08-18 03:49:00,
2013-08-17 23:54:00,65.5,59.6,30.24,NE,45,0.0,0.9,81,0.00,,,0.00,WUHU216HW,2013-08-18 03:54:00,
2013-08-17 23:59:00,65.5,59.6,30.24,NE,45,0.0,0.9,81,0.00,,,0.00,WUHU216HW,2013-08-18 03:59:00,